Zurück zum Katalog

STARLINK-32447

AktivKommunikationVLEO
NORAD 61261·PAYLOAD·🇺🇸 United States

Gestartet Sep 25, 2024 von Vandenberg Space Force Base

Loading…

Nächste Überflüge (nächste 24 Stunden)

TLE

AktuellSource: CelesTrak SupGP

Epoche: Sep 14, 2026, 20:46 UTC

1 61261C 24175U   26257.86576389  .00025036  00000+0  74006-3 0  2571
2 61261  53.1589  32.1854 0001229  82.2017 208.8964 15.34362007    15

Verfolge STARLINK-32447 in Echtzeit mit AllMySat

Download on the App Store